Probability
0 0 0 0 0 0 0 0 0 0 1 2 3 3 5 7 5 4 3 3 2 2 2 1 0 0 0 0 0 0 0 0 0 0 0 0 0 0 0 0 0 0 0
0 0 0 0 0 0 0 0 0 1 2 2 2 2 3 5 5 4 3 3 2 1 1 0 0 0 0 0 0 0 0 0 0 0 0 0 0 0 0 0 0 0 0
0 0 0 0 0 0 0 0 0 1 2 2 1 1 1 3 4 3 3 3 2 1 0 0 0 0 0 0 0 0 0 0 0 0 0 0 0 0 0 0 0 0 0
0 0 0 0 0 0 0 0 0 1 2 2 1 0 1 2 3 3 3 3 2 1 0 0 0 0 0 0 0 0 0 0 0 0 0 0 0 0 0 0 0 0 0
0 0 0 0 0 0 0 0 0 1 2 2 1 0 0 1 2 3 3 3 1 1 0 0 0 0 0 0 0 0 0 0 0 0 0 0 0 1 0 0 0 0 0
0 0 0 0 0 0 0 0 0 0 1 1 0 0 0 0 1 2 3 2 1 0 0 0 0 0 0 0 0 0 0 0 0 0 0 0 0 0 0 0 0 0 0
0 0 0 0 0 0 0 0 0 0 0 0 0 0 0 0 0 1 2 1 0 0 0 0 0 0 0 0 0 0 0 0 0 0 0 0 0 0 0 0 0 0 0
0 0 0 0 0 0 0 0 0 0 0 0 0 0 0 0 0 1 1 1 0 0 0 0 0 0 0 0 0 0 0 0 0 0 0 0 0 0 0 0 0 0 0
0 0 0 0 0 0 0 0 0 0 0 0 0 0 0 0 0 0 0 0 0 0 0 0 0 0 0 0 0 0 0 0 0 0 0 0 0 0 0 0 0 0 0
0 0 0 0 0 0 0 0 1 0 0 0 0 1 1 1 0 0 0 0 0 0 0 0 0 0 0 0 0 0 0 0 0 0 0 0 0 0 0 0 0 0 0
0 0 0 0 0 0 0 0 0 0 0 0 0 1 2 2 1 0 0 0 0 0 0 0 0 0 0 0 0 0 0 0 0 0 0 0 0 0 0 0 0 0 0
0 0 0 0 0 0 0 0 0 0 0 0 0 0 1 2 2 1 0 0 0 0 0 0 0 0 0 0 0 0 0 0 0 0 0 0 0 0 0 0 0 0 0
0 0 0 0 0 0 0 0 0 0 0 0 0 0 1 2 3 2 1 0 0 0 0 0 0 0 0 0 0 0 0 0 0 0 0 0 0 0 0 0 0 0 0
0 0 0 0 0 0 0 0 0 0 0 0 0 0 0 1 2 2 1 0 0 0 0 0 0 0 0 0 0 0 0 0 0 0 0 0 0 0 0 0 0 0 0
0 0 0 0 0 0 0 0 0 0 1 1 0 0 0 0 1 1 1 0 0 0 0 0 0 0 0 0 0 0 0 0 0 0 0 0 0 0 0 0 0 0 0
0 0 0 0 0 0 0 1 1 1 1 1 0 0 0 0 0 0 0 0 0 0 0 0 0 0 0 0 0 0 0 0 0 0 0 0 0 0 0 0 0 0 0
0 0 0 0 0 0 1 2 2 1 1 1 0 0 0 0 0 0 0 0 0 0 0 0 0 0 0 0 0 0 0 0 0 0 0 0 0 0 0 0 0 0 0
0 0 0 0 0 1 2 2 1 0 0 0 0 0 0 0 0 0 0 0 0 0 0 0 0 0 0 0 0 0 0 0 0 0 0 0 0 0 0 0 0 0 0
0 0 0 1 1 2 3 2 1 0 0 0 0 0 0 0 0 0 0 0 0 0 0 0 0 0 0 0 0 0 0 0 0 0 0 0 0 0 0 0 0 0 0
0 0 0 0 1 2 3 1 0 0 0 0 0 0 0 0 0 0 0 0 0 0 0 0 0 0 0 0 0 0 0 0 0 0 0 0 0 0 0 0 0 0 0
0 0 0 0 1 2 2 1 0 0 0 0 0 0 0 0 0 0 0 0 0 0 0 0 0 0 0 0 0 0 0 0 0 0 0 0 0 0 0 0 0 0 0
0 0 0 0 0 1 1 0 0 0 0 0 0 0 0 0 0 0 0 0 0 0 0 0 0 0 0 0 0 0 0 0 0 0 0 0 0 0 0 0 0 0 0
0 0 0 0 0 0 0 0 0 0 0 0 0 0 0 0 0 0 0 0 0 0 0 0 0 0 0 0 0 0 0 0 0 0 0 0 0 0 0 0 0 0 0
0 0 0 0 0 0 0 0 0 0 0 0 0 0 0 0 0 0 0 0 0 0 0 0 0 0 0 0 0 0 0 0 0 0 0 0 0 0 0 0 0 0 0
0 0 0 0 0 0 0 0 0 0 0 0 0 0 0 0 0 0 0 0 0 0 0 0 0 0 0 0 0 0 0 0 0 0 0 0 0 0 0 0 0 0 0
0 0 0 0 0 0 0 0 0 0 0 0 0 0 0 0 0 0 0 0 0 0 0 0 0 0 0 0 0 0 0 0 0 0 0 0 0 0 0 0 0 0 0
Wind_Speed
16 18 21 20 21 21 23 23 21 20 18 14 13 12 11 11 12 11 14 15 14 16 14 11 13 12 12 14 13 12 12 11 11 10 7 5 5 5 5 5 6 6 6
17 21 23 23 21 19 21 21 19 18 15 13 14 14 12 13 13 13 14 15 16 17 14 13 13 14 13 14 12 11 8 7 12 12 10 5 3 1 2 4 5 6 6
22 23 25 25 20 18 19 19 21 19 15 14 12 14 18 15 12 12 14 15 16 17 18 17 15 15 14 14 17 14 12 10 9 12 13 13 9 5 0 2 3 6 7
27 27 25 25 22 19 18 20 20 19 15 14 11 11 12 16 17 13 13 16 17 18 19 18 17 16 14 16 16 17 13 14 11 9 9 9 9 8 4 0 1 2 4
28 27 26 25 25 21 19 19 20 19 17 15 14 11 10 13 16 15 15 16 16 16 18 19 19 18 16 17 18 18 15 13 14 13 9 7 9 12 8 6 2 1 1
27 27 27 25 22 21 19 18 18 20 19 19 20 16 12 12 15 19 14 12 13 15 18 19 19 19 18 19 19 19 18 15 14 14 11 10 12 13 12 11 7 6 2
26 27 27 25 25 24 23 20 20 20 22 22 21 20 14 12 14 17 14 12 10 13 18 21 20 20 20 20 19 18 17 16 16 16 11 9 8 9 10 13 11 6 3
26 27 27 26 26 26 25 24 23 21 21 21 21 20 17 10 10 11 13 14 12 12 20 23 22 22 23 22 21 18 18 15 15 17 14 11 9 10 9 11 13 9 4
28 29 31 29 28 29 27 25 25 24 22 19 19 19 18 13 9 10 11 12 15 14 17 24 22 22 23 23 22 18 20 19 18 17 17 14 11 11 10 10 13 15 12
30 31 32 31 29 27 27 26 25 24 22 20 18 17 17 17 12 9 10 10 13 18 18 22 25 24 23 23 22 18 20 20 19 16 18 16 12 11 11 11 12 11 10
31 31 31 29 28 28 26 27 27 26 24 21 18 19 18 16 16 12 11 9 10 16 21 18 25 25 24 24 22 20 21 21 19 18 19 19 17 12 11 11 11 10 9
30 30 28 26 26 28 27 27 26 25 25 24 23 23 20 17 16 15 13 9 9 14 19 22 22 25 24 24 24 22 21 22 20 19 19 19 16 15 12 11 12 11 9
31 31 29 28 28 26 25 25 24 23 22 23 24 24 20 17 16 16 13 11 10 12 17 21 19 24 25 25 25 24 23 22 22 21 20 19 19 17 14 13 11 10 8
30 32 32 29 27 25 25 25 24 24 23 22 23 22 22 21 19 17 13 12 12 11 16 19 19 24 24 24 23 22 22 21 21 21 21 21 21 20 18 15 13 11 9
32 33 33 31 30 27 25 25 25 24 24 22 22 22 22 21 22 20 14 12 13 11 14 18 20 23 23 23 25 22 22 21 19 19 18 18 20 24 21 17 15 14 11
32 35 35 34 31 29 27 27 26 26 25 24 23 22 21 21 22 21 19 15 13 13 14 18 20 22 19 27 34 26 20 20 20 18 17 17 17 20 23 21 20 21 19
30 33 35 33 31 29 29 27 27 27 28 26 21 20 21 22 20 20 20 14 13 14 16 19 17 21 21 28 33 31 21 19 19 19 17 13 13 17 19 23 25 24 25
30 31 31 32 31 30 28 27 27 26 27 26 20 20 20 21 20 20 19 14 12 13 14 18 15 17 20 29 33 31 21 19 18 19 19 18 16 17 19 16 15 15 18
26 26 28 30 31 28 27 27 27 25 25 25 22 21 20 20 20 19 18 15 14 14 14 16 10 14 17 27 32 28 17 15 17 16 18 19 18 23 27 20 17 15 12
28 29 29 30 28 27 27 27 26 26 25 25 25 23 20 18 18 18 15 14 14 14 13 12 11 15 16 24 31 28 15 14 14 14 16 23 25 29 31 24 21 19 16
29 31 29 27 27 27 27 27 28 26 25 25 25 24 20 16 17 16 14 13 14 13 11 9 9 11 14 20 30 31 17 15 14 13 14 17 28 31 35 28 20 22 20
29 29 26 28 27 26 26 28 28 28 26 25 24 23 20 16 12 13 13 12 13 12 10 8 8 9 11 17 27 32 26 20 16 15 13 16 28 32 34 29 27 26 18
26 26 27 29 27 26 26 28 29 28 27 26 23 20 18 16 12 11 12 10 9 9 7 8 9 8 9 12 23 29 30 26 18 14 17 21 28 30 29 33 31 22 15
24 25 27 28 30 29 28 27 27 27 26 25 23 19 15 14 12 9 10 9 7 7 7 8 8 8 8 9 11 13 18 21 18 16 18 21 23 24 24 23 21 16 16
22 22 23 26 29 30 29 28 27 28 26 24 21 17 15 12 11 11 9 8 9 9 8 7 7 8 9 11 14 14 13 12 14 13 11 12 14 15 13 13 14 14 14
21 22 24 26 28 29 28 26 27 28 26 23 20 18 17 10 9 9 9 15 16 17 18 14 11 9 11 17 20 21 22 21 21 13 11 12 14 14 15 15 15 16 16
Wind_Direction
6 359 354 348 344 349 352 349 347 346 340 331 326 315 285 249 224 221 224 219 205 195 187 174 171 175 171 167 170 160 161 151 144 129 106 87 115 148 152 153 153 147 131
357 351 350 344 340 343 351 349 344 343 342 339 328 320 306 284 244 218 222 215 206 196 187 176 174 172 170 163 163 157 154 154 168 153 146 132 105 106 172 174 164 144 133
354 344 345 343 338 337 342 340 337 332 334 334 336 332 328 313 281 227 212 212 208 198 188 179 176 171 171 165 162 163 175 164 175 175 167 166 170 145 346 203 162 150 149
352 347 346 344 338 329 334 329 330 325 324 324 323 332 320 308 304 283 229 203 207 206 192 179 175 172 175 172 170 168 178 173 167 182 189 178 143 157 146 199 66 129 150
346 342 341 337 330 325 328 322 322 318 317 311 305 312 307 305 303 297 271 215 198 199 195 183 173 175 179 177 175 177 177 182 175 179 181 165 162 178 159 158 143 77 97
337 333 333 329 323 317 317 309 307 310 308 309 302 302 304 307 308 305 298 260 206 190 192 188 179 178 180 179 178 180 181 179 186 182 182 182 180 178 170 165 159 141 130
331 327 325 323 318 315 311 302 296 300 298 302 299 294 298 300 303 304 302 295 256 195 186 187 185 180 179 177 177 180 182 179 180 188 182 187 188 176 166 167 162 142 129
328 323 322 318 315 312 306 300 294 293 289 291 293 287 288 286 287 296 308 305 291 242 188 186 186 182 177 176 177 181 178 180 182 189 182 179 171 172 168 172 162 149 148
327 323 320 314 311 308 304 301 297 294 285 280 284 278 277 275 268 278 287 298 302 294 220 183 185 184 178 175 178 182 181 181 185 189 184 181 172 174 170 171 177 173 175
326 324 317 313 312 312 308 307 304 302 293 285 277 272 269 272 270 272 272 287 308 316 291 194 185 186 179 174 177 180 183 178 184 185 185 184 172 172 166 169 181 185 172
323 318 314 316 322 321 325 329 325 317 309 299 287 277 269 263 272 272 269 266 286 309 308 242 189 185 179 174 176 179 181 179 180 182 182 185 173 171 169 168 179 185 176
320 317 318 323 327 324 321 316 313 310 309 310 305 289 272 263 263 270 273 278 273 291 304 282 198 186 179 176 176 176 179 179 181 181 181 185 176 178 171 169 176 180 171
321 320 322 325 321 317 316 312 311 310 309 309 309 304 298 292 288 281 277 274 269 279 296 296 220 186 181 178 181 180 177 183 183 185 186 186 181 187 180 173 172 175 167
320 323 323 322 320 318 316 313 313 313 309 303 300 300 301 299 293 283 276 277 278 283 290 293 238 190 183 180 183 185 181 185 189 190 192 190 187 191 188 179 172 166 164
324 324 322 322 320 319 318 317 312 307 302 296 293 293 292 295 298 296 290 279 276 279 284 293 251 194 183 182 179 183 184 181 186 190 194 196 192 193 192 184 173 161 162
324 322 320 319 319 320 319 316 312 310 307 299 289 287 286 285 284 288 280 271 274 281 283 286 244 189 184 186 177 176 182 181 179 184 189 195 192 191 187 185 176 170 169
321 320 318 317 318 319 317 315 312 313 307 295 286 283 280 278 275 273 277 263 266 274 280 284 233 191 185 183 178 175 180 185 183 180 181 185 192 191 187 183 175 179 185
321 319 316 314 317 317 316 313 311 308 307 302 292 284 276 272 274 272 273 270 271 266 280 272 220 192 183 179 178 179 179 186 188 182 178 181 184 184 180 177 175 182 191
315 313 313 312 315 318 317 314 310 311 308 305 302 293 281 273 272 265 265 275 274 268 278 265 210 192 176 176 178 177 180 181 185 185 181 181 183 183 176 171 175 180 191
317 318 317 318 317 319 318 314 315 313 310 309 307 298 282 270 271 268 257 259 265 266 275 259 211 191 170 173 178 178 181 180 181 184 189 185 183 181 180 176 177 179 182
313 316 319 319 321 322 320 319 317 314 312 307 305 302 293 265 257 262 258 261 262 260 263 243 213 194 175 174 179 182 183 183 181 183 190 192 186 183 182 182 182 187 180
319 320 323 321 323 324 324 322 319 316 313 310 305 301 295 282 252 256 261 253 250 258 254 224 204 200 185 180 183 186 186 183 184 187 187 188 185 182 187 187 189 189 175
319 321 324 321 323 327 329 324 322 322 319 312 305 297 291 289 268 249 256 256 254 254 250 223 203 196 189 186 189 190 188 183 183 183 181 182 185 183 189 194 188 179 168
321 323 324 324 324 329 331 327 326 327 320 313 307 301 290 289 285 249 237 240 251 256 244 223 209 197 184 181 180 190 190 183 180 176 175 179 184 191 191 193 190 183 178
319 324 325 324 324 328 330 331 333 330 325 321 318 315 304 281 274 262 240 237 239 236 233 216 197 191 186 182 174 176 183 182 176 161 160 171 183 188 187 187 185 178 178
324 328 326 326 325 329 329 334 337 333 332 332 332 326 318 293 268 270 249 238 241 241 229 206 180 177 173 167 170 174 176 171 159 156 171 179 186 187 185 180 181 181 181